Change the Weather History Date:

Monday, March 11, 2013

  Actual Average Record
Temperature  
Mean Temperature 53 °F -  
Max Temperature 61 °F 35 °F 61 °F (2013)
Min Temperature 45 °F 20 °F 6 °F (2008)
Degree Days  
Heating Degree Days 12    
Growing Degree Days 3 (Base 50)    
Moisture  
Dew Point 32 °F    
Average Humidity 46    
Maximum Humidity 89    
Minimum Humidity 32    
Precipitation  
Precipitation 0.06 in - - ()
Sea Level Pressure  
Sea Level Pressure 29.78 in    
Wind  
Wind Speed 11 mph (South)    
Max Wind Speed 21 mph    
Max Gust Speed 33 mph    
Visibility 10 miles    
Events Rain    
Averages and records for this station are not official NWS values.
T = Trace of Precipitation, MM = Missing Value Source: NWS Daily Summary

Daily Weather History Graph

Daily Weather History Graph

Search for Another Location

Airport or City:

Trip Planner

Search our weather history database for the weather conditions in past years. The results will help you decide how hot, cold, wet, or windy it might be!

Date:

Astronomy

Mar. 11, 2013 Rise Set
Actual Time 7:34 AM EDT 7:17 PM EDT
Civil Twilight 7:06 AM EDT 7:45 PM EDT
Nautical Twilight 6:33 AM EDT 8:18 PM EDT
Astronomical Twilight 5:59 AM EDT 8:52 PM EDT
Moon 7:06 AM EDT (3/11) 7:29 PM EDT (3/11)
Length of Visible Light 12h 39m
Length of Day
11h 43m
Waning Crescent, 0% of the Moon is Illuminated
Mar 11
Waning Crescent
Mar 11
New
Mar 19
First Quarter
Mar 27
Full
Apr 3
Last Quarter

Hourly Weather History & Observations

Time (EDT) Temp. Windchill Dew Point Humidity Pressure Visibility Wind Dir Wind Speed Gust Speed Precip Events Conditions
12:53 AM 52.0 °F - 28.9 °F 41% 29.94 in 10.0 mi South 9.2 mph - N/A   Clear
1:53 AM 51.1 °F - 28.0 °F 41% 29.93 in 10.0 mi South 10.4 mph - N/A   Clear
2:53 AM 51.1 °F - 28.0 °F 41% 29.92 in 10.0 mi South 9.2 mph - N/A   Clear
3:53 AM 51.1 °F - 28.0 °F 41% 29.89 in 10.0 mi South 9.2 mph - N/A   Clear
4:53 AM 50.0 °F - 28.9 °F 44% 29.88 in 10.0 mi South 10.4 mph - N/A   Clear
5:53 AM 50.0 °F - 28.9 °F 44% 29.87 in 10.0 mi South 9.2 mph - N/A   Scattered Clouds
6:53 AM 51.1 °F - 28.9 °F 43% 29.90 in 10.0 mi South 8.1 mph - N/A   Mostly Cloudy
7:00 AM 51.8 °F - 28.4 °F 41% 29.88 in 10.0 mi South 6.9 mph - N/A   Overcast
7:53 AM 51.1 °F - 28.9 °F 43% 29.90 in 10.0 mi South 9.2 mph - N/A   Overcast
8:53 AM 51.1 °F - 28.9 °F 43% 29.91 in 10.0 mi South 10.4 mph - N/A   Overcast
9:53 AM 51.1 °F - 28.9 °F 43% 29.89 in 10.0 mi South 13.8 mph - N/A   Overcast
10:53 AM 52.0 °F - 28.9 °F 41% 29.90 in 10.0 mi South 10.4 mph - N/A   Overcast
11:53 AM 54.0 °F - 30.0 °F 40% 29.87 in 10.0 mi South 10.4 mph - N/A   Overcast
12:53 PM 57.0 °F - 30.0 °F 36% 29.83 in 10.0 mi South 15.0 mph - N/A   Overcast
1:53 PM 61.0 °F - 32.0 °F 34% 29.78 in 10.0 mi South 13.8 mph - N/A   Overcast
2:53 PM 61.0 °F - 30.9 °F 32% 29.75 in 10.0 mi South 11.5 mph - N/A   Overcast
3:53 PM 59.0 °F - 30.0 °F 33% 29.73 in 10.0 mi South 12.7 mph - N/A   Overcast
4:28 PM 57.2 °F - 32.0 °F 38% 29.72 in 10.0 mi South 13.8 mph - 0.00 in Rain Light Rain
4:53 PM 55.9 °F - 36.0 °F 47% 29.69 in 10.0 mi SE 10.4 mph - 0.00 in Rain Light Rain
5:37 PM 57.2 °F - 33.8 °F 41% 29.65 in 10.0 mi SSE 9.2 mph - 0.00 in   Overcast
5:53 PM 55.9 °F - 32.0 °F 40% 29.68 in 10.0 mi South 11.5 mph - 0.00 in   Overcast
6:32 PM 55.4 °F - 30.2 °F 38% 29.63 in 10.0 mi SSE 20.7 mph 27.6 mph 0.00 in Rain Light Rain
6:53 PM 55.4 °F - 32.0 °F 41% 29.63 in 10.0 mi SSE 12.7 mph 23.0 mph N/A Rain Light Rain
7:53 PM 53.1 °F - 34.0 °F 48% 29.64 in 10.0 mi SSE 9.2 mph - 0.00 in Rain Light Rain
8:53 PM 52.0 °F - 33.1 °F 49% 29.62 in 10.0 mi South 17.3 mph 26.5 mph 0.00 in Rain Light Rain
9:53 PM 50.0 °F - 37.9 °F 63% 29.65 in 9.0 mi South 15.0 mph 24.2 mph 0.04 in Rain Light Rain
10:20 PM 46.4 °F 39.5 °F 39.2 °F 76% 29.68 in 9.0 mi WSW 17.3 mph 33.4 mph N/A Rain Light Rain
10:53 PM 45.0 °F 40.1 °F 41.0 °F 86% 29.69 in 10.0 mi WSW 9.2 mph - N/A Rain Light Rain
11:53 PM 46.0 °F 40.2 °F 43.0 °F 89% 29.70 in 9.0 mi SW 12.7 mph - 0.02 in Rain Light Rain